Location: Unspecified
(0.0000°N, 0.0000°E)
Time: 09:41:34
(UTC+00:00)

APRIZESAT 2 (LATINSAT D) - Pass Details

Date: 11 June 2023
Orbit: 691 x 845 km, 98.1° (Epoch: 28 September)

Event Time Altitude Azimuth Distance (km) Brightness Sun altitude
Rises 18:29:51 0° 52° (NE) 3,390 ? -6.9°
Reaches altitude 10° 18:34:18 10° 86° (E) 2,447 ? -7.9°
Maximum altitude 18:35:45 11° 102° (ESE) 2,366 ? -8.3°
Enters shadow 18:37:04 10° 117° (ESE) 2,423 ? -8.6°
